Location: Birkenwerder
(52.6919°N, 13.2774°E)
Time: 15:51:27
(UTC+00:00)

MOZ.5/SAFIR/RUBIN 5/SL-8 - Pass Details

Date: 07 June 2020
Orbit: 679 x 705 km, 98.1° (Epoch: 09 July)

Event Time Altitude Azimuth Distance (km) Brightness Sun altitude
Exits shadow 00:29:15 13° 168° (SSE) 1,897 5.5 -12.4°
Maximum altitude 00:33:20 81° 256° (WSW) 697 3.7 -12.2°
Drops below altitude 10° 00:38:02 10° 344° (NNW) 2,141 7.1 -11.9°
Sets 00:40:17 0° 345° (NNW) 3,065 8.1 -11.8°
